Location: Courcelles
(49.2596°N, 1.7419°E)
Time: 03:11:23
(UTC+00:00)

ATLAS CENTAUR R/B - Pass Details

Date: 17 November 2025
Orbit: 344 x 426 km, 64.6° (Epoch: 04 December)

Event Time Altitude Azimuth Distance (km) Brightness Sun altitude
Rises 16:31:12 0° 242° (WSW) 2,436 7.8 -4.1°
Reaches altitude 10° 16:33:25 10° 252° (WSW) 1,574 5.6 -4.4°
Maximum altitude 16:36:38 33° 319° (NW) 780 2.3 -4.9°
Drops below altitude 10° 16:39:52 10° 25° (NNE) 1,582 3.2 -5.4°
Enters shadow 16:41:24 - 33° (NNE) 2,163 3.9 -5.6°
